This demonstration page uses our WeatherBlox Daily Observations layout. Learn more.

40.92945, -100.16068

Hourly Observations for August 27, 2019

Temp ( °F °C ) Dew Point ( °F °C ) Humidity (%) Winds ( mph kmh ) Pressure ( in mb ) Visibility ( mi km ) Precip ( " mm )
12:15 am 00:15 Clear 57 14 56 13.5 97 97 W 6 9 30 1016 10 16.09344 0 0
12:35 am 00:35 Clear 56 13.6 56 13.1 97 97 WNW 5 7 30 1016 10 16.09344 0 0
12:55 am 00:55 Clear 57 13.7 55 13 96 96 W 6 9 30 1016 10 16.09344 0 0
1:15 am 01:15 Clear 56 13.5 55 12.6 94 94 WNW 3 6 30 1016 10 16.09344 0 0
1:35 am 01:35 Clear 56 13.4 55 12.5 94 94 W 6 9 30.03 1017 10 16.09344 0 0
1:55 am 01:55 Clear 55 13 54 12.3 96 96 W 7 11 30.03 1017 10 16.09344 0 0
2:15 am 02:15 Clear 55 12.9 54 12.2 96 96 W 6 9 30.03 1017 10 16.09344 0 0
2:35 am 02:35 Clear 55 12.6 54 12 96 96 W 5 7 30.06 1018 10 16.09344 0 0
2:55 am 02:55 Clear 55 12.7 54 12 96 96 WSW 3 6 30.06 1018 10 16.09344 0 0
3:15 am 03:15 Clear 54 12.4 53 11.7 96 96 W 6 9 30.06 1018 10 16.09344 0 0
3:35 am 03:35 Clear 53 11.8 53 11.4 97 97 W 7 11 30.06 1018 10 16.09344 0 0
3:55 am 03:55 Clear 54 12 53 11.4 96 96 WNW 5 7 30.03 1017 10 16.09344 0 0
4:15 am 04:15 Clear 53 11.8 52 11.3 97 97 Calm 30.06 1018 10 16.09344 0 0
4:35 am 04:35 Clear 52 11 52 10.9 99 99 Calm 30.06 1018 10 16.09344 0 0
4:55 am 04:55 Clear 53 11.4 52 11 97 97 W 6 9 30.03 1017 10 16.09344 0 0
5:15 am 05:15 Clear 52 11 52 10.9 99 99 NW 5 7 30.03 1017 10 16.09344 0 0
5:35 am 05:35 Clear 52 11 52 10.9 99 99 NNW 7 11 30.03 1017 10 16.09344 0 0
5:55 am 05:55 Clear 53 11.4 52 11 97 97 NNW 7 11 30.06 1018 10 16.09344 0 0
6:15 am 06:15 Clear 52 11.2 51 10.8 97 97 NW 6 9 30.06 1018 10 16.09344 0 0
6:35 am 06:35 Partly Cloudy 52 11.2 51 10.8 97 97 NNW 7 11 30.09 1019 10 16.09344 0 0
6:55 am 06:55 Partly Cloudy 51 10.8 51 10.3 97 97 NW 5 7 30.12 1020 10 16.09344 0 0
7:15 am 07:15 Sunny 51 10.6 50 10.2 97 97 W 6 9 30.12 1020 10 16.09344 0 0
7:35 am 07:35 Sunny 52 11.3 51 10.6 96 96 NW 6 9 30.09 1019 10 16.09344 0 0
7:55 am 07:55 Sunny 54 12 52 11.3 96 96 NNW 7 11 30.09 1019 10 16.09344 0 0
8:15 am 08:15 Sunny 54 12.2 53 11.4 95 95 NW 6 9 30.09 1019 10 16.09344 0 0
8:35 am 08:35 Sunny 55 12.5 53 11.7 95 95 N 8 13 30.09 1019 10 16.09344 0 0
8:55 am 08:55 Sunny 56 13.1 53 11.9 93 93 N 8 13 30.09 1019 10 16.09344 0 0
9:15 am 09:15 Sunny 57 13.7 54 12 90 90 NNW 7 11 30.09 1019 10 16.09344 0 0
9:35 am 09:35 Sunny 57 14 54 12.3 90 90 WNW 7 11 30.12 1020 10 16.09344 0 0
9:55 am 09:55 Sunny 58 14.5 55 12.8 90 90 W 7 11 30.09 1019 10 16.09344 0 0
10:15 am 10:15 Partly Cloudy 60 15.4 56 13.1 86 86 W 7 11 30.09 1019 10 16.09344 0 0
10:35 am 10:35 Cloudy 60 15.4 56 13.3 87 87 W 8 13 30.12 1020 10 16.09344 0 0
10:55 am 10:55 Cloudy 61 16 55 12.9 82 82 WNW 8 13 30.12 1020 10 16.09344 0 0
11:15 am 11:15 Cloudy 62 16.7 56 13.4 81 81 NW 8 13 30.12 1020 10 16.09344 0 0
11:35 am 11:35 Cloudy 62 16.8 56 13.1 79 79 WNW 6 9 30.12 1020 10 16.09344 0 0
11:55 am 11:55 Cloudy 62 16.9 56 13.3 79 79 W 6 9 30.12 1020 10 16.09344 0 0
12:15 pm 12:15 Cloudy 64 17.7 56 13.2 75 75 W 6 9 30.12 1020 10 16.09344 0 0
12:35 pm 12:35 Cloudy 64 17.7 55 13 74 74 WSW 3 6 30.12 1020 10 16.09344 0 0
12:55 pm 12:55 Cloudy 65 18.4 56 13.3 72 72 Calm 30.09 1019 10 16.09344 0 0
1:15 pm 13:15 Cloudy 65 18.6 56 13.2 71 71 W 5 7 30.09 1019 10 16.09344 0 0
1:35 pm 13:35 Cloudy 65 18.5 56 13.2 71 71 WSW 7 11 30.09 1019 10 16.09344 0 0
1:55 pm 13:55 Cloudy 65 18.6 56 13.4 72 72 WSW 5 7 30.09 1019 10 16.09344 0 0
2:15 pm 14:15 Cloudy 65 18.3 55 12.9 71 71 SW 6 9 30.09 1019 10 16.09344 0 0
2:35 pm 14:35 Cloudy 65 18.5 54 12.3 67 67 WSW 7 11 30.09 1019 10 16.09344 0 0
2:55 pm 14:55 Cloudy 66 18.8 55 13 69 69 SW 6 9 30.09 1019 10 16.09344 0 0
3:15 pm 15:15 Cloudy 65 18.6 55 12.5 68 68 SW 8 13 30.06 1018 10 16.09344 0 0
3:35 pm 15:35 Cloudy 65 18.3 54 12.2 68 68 WSW 5 7 30.06 1018 10 16.09344 0 0
3:55 pm 15:55 Cloudy 65 18.5 54 12.2 67 67 WSW 5 7 30.06 1018 10 16.09344 0 0
4:15 pm 16:15 Cloudy 65 18.2 56 13.3 73 73 SW 7 11 30.06 1018 10 16.09344 0 0
4:35 pm 16:35 Cloudy 65 18.5 55 13 71 71 WSW 6 9 30.06 1018 10 16.09344 0 0
4:55 pm 16:55 Cloudy 65 18.2 56 13.1 72 72 WSW 7 11 30.06 1018 10 16.09344 0 0
5:15 pm 17:15 Cloudy 64 17.8 56 13.3 75 75 WSW 5 7 30.06 1018 10 16.09344 0 0
5:35 pm 17:35 Cloudy 64 18 56 13.3 74 74 WSW 3 6 30.03 1017 10 16.09344 0 0
5:55 pm 17:55 Cloudy with Light Drizzle 64 17.9 57 14 78 78 SW 5 7 30.03 1017 10 16.09344 0 0
6:15 pm 18:15 Cloudy 64 17.8 57 14 79 79 SW 5 7 30.03 1017 10 16.09344 0 0
6:35 pm 18:35 Cloudy 64 17.8 57 13.9 78 78 SW 6 9 30.03 1017 10 16.09344 0 0
6:55 pm 18:55 Cloudy 64 17.8 57 13.8 78 78 SW 5 7 30.03 1017 10 16.09344 0 0
7:15 pm 19:15 Cloudy 64 18 56 13.6 76 76 SW 6 9 30.03 1017 10 16.09344 0 0
7:35 pm 19:35 Cloudy 64 17.6 57 13.7 78 78 WSW 3 6 30.03 1017 10 16.09344 0 0
7:55 pm 19:55 Cloudy 63 17.1 57 14 82 82 Calm 30.06 1018 10 16.09344 0 0
8:15 pm 20:15 Cloudy 62 16.6 57 14 85 85 Calm 30.06 1018 10 16.09344 0 0
8:35 pm 20:35 Mostly Cloudy 61 16.2 56 13.5 84 84 Calm 30.06 1018 10 16.09344 0 0
8:55 pm 20:55 Mostly Cloudy 61 16.1 55 13 82 82 WSW 3 6 30.06 1018 10 16.09344 0 0
9:15 pm 21:15 Mostly Cloudy 58 14.7 55 12.8 88 88 SW 5 7 30.06 1018 10 16.09344 0 0
9:35 pm 21:35 Mostly Cloudy 58 14.3 55 12.5 89 89 WSW 3 6 30.06 1018 10 16.09344 0 0
9:55 pm 21:55 Partly Cloudy 56 13.6 55 12.5 93 93 Calm 30.12 1020 10 16.09344 0 0
10:15 pm 22:15 Clear 56 13.4 53 11.8 90 90 WSW 5 7 30.12 1020 10 16.09344 0 0
10:35 pm 22:35 Clear 54 12.4 53 11.5 94 94 W 5 7 30.12 1020 10 16.09344 0 0
10:55 pm 22:55 Clear 54 12.1 52 11.2 94 94 W 5 7 30.12 1020 10 16.09344 0 0
11:15 pm 23:15 Clear 53 11.6 52 11.3 98 98 WNW 3 6 30.12 1020 10 16.09344 0 0
11:35 pm 23:35 Clear 52 10.9 51 10.6 98 98 Calm 30.15 1021 10 16.09344 0 0
11:55 pm 23:55 Clear 52 11 51 10.8 99 99 Calm 30.15 1021 10 16.09344 0 0

Powered by AerisWeather